sat.trackr.live / text

‹ back to catalog

STARLINK-11682 [DTC]

NORAD 64234 · 2025-119B

PAYLOAD ACTIVE UNKNOWN

§ Identity

Operator
Country
US
Launch date
2025-06-03
Launch site
AFETR
Launch vehicle
Mass (kg)
RCS (m²)

Purposes: comms

External: N2YO · Heavens-Above · Gunter

§ Orbital elements

Epoch: 2026-09-20T22:04:00.789312Z

Period
91.67 min
Inclination
43.0000°
Eccentricity
0.0003610
Mean motion
15.70936982 rev/d
Perigee alt
353.8 km
Apogee alt
358.6 km
Semi-major
6,734.4 km
B*
8.4975e-4
RAAN
112.8406°
Arg perigee
246.0713°
Mean anomaly
113.9776°
Rev number
7,594

§ Raw data

STARLINK-11682 [DTC]1 64234U 25119B   26263.91945358  .00110522  00000+0  84975-3 0  99962 64234  43.0000 112.8406 0003610 246.0713 113.9776 15.70936982 75942

JSON: /api/v1/satellites/64234 · /tle

For live sub-satellite position, see the globe view (requires WebGL).

§ Visibility from observer

Set your observer location to see the next 7 days of passes ≥ 10°. The values pass through the URL so the page stays shareable.

No JS? Fill the form by hand. The geolocation button needs JavaScript.